Change the Weather History Date:

Friday, July 19, 2013

  Actual Average (KHVN) Record (KHVN)
Temperature  
Mean Temperature 83 °F -  
Max Temperature 93 °F 78 °F 100 °F (1977)
Min Temperature 73 °F 63 °F 59 °F (2000)
Cooling Degree Days 18    
Growing Degree Days 33 (Base 50)    
Moisture  
Dew Point 74 °F    
Average Humidity 74    
Maximum Humidity 100    
Minimum Humidity 52    
Precipitation  
Precipitation 0.00 in - - ()
Sea Level Pressure  
Sea Level Pressure 29.87 in    
Wind  
Wind Speed 3 mph (SSW)    
Max Wind Speed 10 mph    
Max Gust Speed 18 mph    
Visibility 6 miles    
Events      
Averages and records for this station are not official NWS values.
T = Trace of Precipitation, MM = Missing Value Source: NWS Daily Summary

Daily Weather History Graph

Daily Weather History Graph

Search for Another Location

Airport or City:

Trip Planner

Search our weather history database for the weather conditions in past years. The results will help you decide how hot, cold, wet, or windy it might be!

Date:

Astronomy

Jul. 19, 2013 Rise Set
Actual Time 5:34 AM EDT 8:20 PM EDT
Civil Twilight 5:01 AM EDT 8:53 PM EDT
Nautical Twilight 4:20 AM EDT 9:33 PM EDT
Astronomical Twilight 3:33 AM EDT 10:20 PM EDT
Moon 5:20 PM EDT (7/19) 2:12 AM EDT (7/19)
Length of Visible Light 15h 51m
Length of Day
14h 46m
Waxing Gibbous, 86% of the Moon is Illuminated
Jul 19
Waxing Gibbous
Jul 22
Full
Jul 29
Last Quarter
Aug 6
New
Aug 14
First Quarter

Hourly Weather History & Observations

Time (EDT) Temp. Heat Index Dew Point Humidity Pressure Visibility Wind Dir Wind Speed Gust Speed Precip Events Conditions
12:53 AM 77.0 °F - 73.9 °F 90% 29.95 in 7.0 mi Calm Calm - N/A   Clear
1:53 AM 75.9 °F - 73.0 °F 91% 29.95 in 5.0 mi Calm Calm - N/A   Clear
2:53 AM 75.9 °F - 73.9 °F 94% 29.95 in 5.0 mi Calm Calm - N/A   Mostly Cloudy
3:53 AM 75.9 °F - 73.9 °F 94% 29.93 in 4.0 mi Calm Calm - N/A   Clear
4:53 AM 75.0 °F - 73.0 °F 94% 29.93 in 3.0 mi Calm Calm - N/A   Clear
5:43 AM 73.4 °F - 73.4 °F 100% 29.93 in 2.0 mi Calm Calm - N/A   Clear
5:53 AM 75.0 °F - 73.0 °F 94% 29.93 in 2.0 mi Calm Calm - N/A   Clear
6:53 AM 78.1 °F - 75.0 °F 90% 29.92 in 3.0 mi Calm Calm - N/A   Clear
7:53 AM 82.0 °F 87.9 °F 73.9 °F 76% 29.92 in 7.0 mi Calm Calm - N/A   Clear
8:53 AM 86.0 °F 93.8 °F 73.9 °F 67% 29.93 in 10.0 mi Variable 4.6 mph - N/A   Clear
9:53 AM 88.0 °F 95.6 °F 73.0 °F 61% 29.92 in 10.0 mi West 6.9 mph - N/A   Clear
10:53 AM 90.0 °F 99.0 °F 73.9 °F 59% 29.91 in 10.0 mi WSW 10.4 mph 16.1 mph N/A   Clear
11:53 AM 91.9 °F 101.3 °F 73.9 °F 55% 29.89 in 10.0 mi Variable 6.9 mph - N/A   Clear
12:53 PM 93.9 °F 104.0 °F 73.9 °F 52% 29.87 in 10.0 mi SW 6.9 mph - N/A   Clear
1:53 PM 91.9 °F 100.7 °F 73.0 °F 54% 29.85 in 10.0 mi SW 10.4 mph 18.4 mph N/A   Partly Cloudy
2:53 PM 90.0 °F 101.3 °F 75.9 °F 63% 29.83 in 7.0 mi SSW 6.9 mph - N/A   Clear
3:53 PM 91.0 °F 104.2 °F 77.0 °F 63% 29.80 in 7.0 mi SSW 8.1 mph - N/A   Clear
4:53 PM 91.9 °F 105.9 °F 77.0 °F 62% 29.78 in 6.0 mi South 9.2 mph - N/A   Haze
5:53 PM 91.9 °F 105.9 °F 77.0 °F 62% 29.76 in 6.0 mi SSW 8.1 mph - N/A   Haze
6:53 PM 89.1 °F 100.2 °F 75.9 °F 65% 29.76 in 6.0 mi South 8.1 mph - N/A   Haze
7:53 PM 87.1 °F 96.3 °F 75.0 °F 67% 29.78 in 6.0 mi South 8.1 mph - N/A   Haze
8:53 PM 84.9 °F 93.3 °F 75.0 °F 72% 29.78 in 7.0 mi South 6.9 mph - N/A   Clear
9:53 PM 82.9 °F 90.2 °F 75.0 °F 77% 29.81 in 7.0 mi South 5.8 mph - N/A   Clear
10:53 PM 82.0 °F 87.9 °F 73.9 °F 76% 29.80 in 7.0 mi South 6.9 mph - N/A   Clear
11:53 PM 80.1 °F 84.5 °F 73.9 °F 81% 29.78 in 6.0 mi South 4.6 mph - N/A   Haze